Simultaneous Nadir Overpasses (SNOs) Predictions

Prediction of SNOs between FY3D and NOAA-19 Satellite Orbit:

Table of predicted SNOs for the next 14.0 days since TLE Epoch: 10/31/2020
Index Date (FY3D) Time (FY3D) Lat,Lon (FY3D) SZA (FY3D ) Date (NOAA-19) Time (NOAA-19) Lat,Lon (NOAA-19) SZA (NOAA-19 ) Distance(km) Time Diff (sec)
1 11/12/2020 04:04:00 79.03, 89.86 97.77 11/12/2020 04:02:48 79.02, 90.00 97.78 3.29 72
2 11/12/2020 04:54:45 -79.04,-102.87 82.21 11/12/2020 04:53:54 -79.02,-102.74 82.22 3.21 51
3 11/12/2020 05:45:29 79.03, 64.49 97.79 11/12/2020 05:44:48 79.03, 64.63 97.80 2.87 41
4 11/12/2020 06:36:14 -79.04,-128.24 82.20 11/12/2020 06:35:54 -79.04,-128.11 82.20 2.70 20
5 11/12/2020 07:26:58 79.03, 39.13 97.81 11/12/2020 07:26:49 79.02, 38.99 97.81 3.15 9
6 11/12/2020 08:17:43 -79.04,-153.60 82.18 11/12/2020 08:17:55 -79.02,-153.74 82.18 3.29 12
7 11/12/2020 09:08:27 79.03, 13.76 97.83 11/12/2020 09:08:49 79.03, 13.62 97.84 3.08 22
8 11/12/2020 09:59:12 -79.03,-178.96 82.16 11/12/2020 09:59:55 -79.04,-179.11 82.16 3.17 43
9 11/12/2020 10:49:57 79.06, -11.85 97.90 11/12/2020 10:50:49 79.05, -11.75 97.86 2.67 52
10 11/12/2020 11:40:42 -79.07, 155.42 82.09 11/12/2020 11:41:55 -79.05, 155.52 82.13 2.61 73
